User: anonymous   Login
Location: Lafig�re
(44.4503°N, 4.0357°E)
Time: 10:22:35
(UTC+00:00)
Language:

CZ-2C R/B - Orbit

View from above orbital plane
View from above orbital plane
View from above satellite
View from above satellite

Ground track
Ground track

The orbit data is extracted from the following two-line orbital elements,

1 43173U 18011E   20329.86552307 +.00003831 +00000-0 +11084-3 0  9993
2 43173 034.9680 143.8493 0142590 022.9279 337.7723 15.25511787157933
Epoch (UTC): 24 November 2020 20:46:21
Eccentricity: 0.0142590
inclination: 34.9680°
perigee height: 391 km
apogee height: 587 km
right ascension of ascending node: 143.8493°
argument of perigee: 22.9279°
revolutions per day: 15.25511787
mean anomaly at epoch: 337.7723°
orbit number at epoch: 15793

The dashed part of the orbit path shows where the satellite is in the earth's shadow,  

DLR